Location: Vesunti
(61.5000°N, 22.8333°E)
Time: 08:59:39
(UTC+00:00)

Cosmos 1805 Rocket - Pass Details

Date: 17 February 2020
Orbit: 606 x 630 km, 82.5° (Epoch: 27 March)

Event Time Altitude Azimuth Distance (km) Brightness Sun altitude
Rises 04:44:11 0° 342° (NNW) 2,887 6.7 -10.5°
Reaches altitude 10° 04:46:33 10° 333° (NNW) 1,976 5.8 -10.2°
Maximum altitude 04:50:29 34° 269° (W) 1,017 4.1 -9.8°
Drops below altitude 10° 04:54:23 10° 205° (SSW) 1,959 6.0 -9.3°
Sets 04:56:44 0° 196° (SSW) 2,859 6.9 -9.0°
